{"data":{"norad_id":63954,"intl_designator":"2025-099C","name":"STARLINK-33974","alt_names":[],"object_type":"PAYLOAD","status":"ACTIVE","operator":null,"country":"US","launch_date":"2025-05-13","launch_site_code":"AFETR","launch_vehicle":null,"mission":null,"orbit_class":"UNKNOWN","rcs_meters":null,"size_class":null,"mass_kg":null,"dimensions":null,"purposes":["comms"],"wikipedia_slug":null,"has_3d_model":false,"image_url":null,"decayed_at":null,"tle_current":{"epoch":"2026-05-24T22:37:02.114112Z","epoch_age_seconds":70245,"freshness":"FRESH","line1":"1 63954U 25099C   26144.94238558  .00019017  00000+0  69769-3 0  9990","line2":"2 63954  43.0031 105.9813 0001966 261.6537  98.4091 15.27632338 58991","mean_motion":15.27632338,"eccentricity":0.0001966,"inclination_deg":43.0031,"raan_deg":105.9813,"arg_perigee_deg":261.6537,"mean_anomaly_deg":98.4091,"bstar":0.00069769,"rev_number":5899,"period_min":94.263519053627,"perigee_km":481.54350333716,"apogee_km":484.24126009005,"semimajor_km":6861.0293817136,"source":"CELESTRAK","updated_at":"2026-05-25T13:38:20.210785Z"}}}